TimeMST,TemperatureF,Dew PointF,Humidity,Sea Level PressureIn,VisibilityMPH,Wind Direction,Wind SpeedMPH,Gust SpeedMPH,PrecipitationIn,Events,Conditions,WindDirDegrees,DateUTC
12:15 AM,10.4,6.8,85,29.66,10.0,West,3.5,-,N/A,,Mostly Cloudy,270,2013-02-21 07:15:00
12:35 AM,10.4,8.6,92,29.66,10.0,Calm,Calm,-,N/A,,Overcast,0,2013-02-21 07:35:00
12:55 AM,10.4,6.8,85,29.66,10.0,WNW,4.6,-,N/A,,Mostly Cloudy,300,2013-02-21 07:55:00
1:15 AM,10.4,6.8,85,29.67,10.0,Calm,Calm,-,N/A,,Mostly Cloudy,0,2013-02-21 08:15:00
1:35 AM,10.4,5.0,79,29.67,10.0,Calm,Calm,-,N/A,,Scattered Clouds,0,2013-02-21 08:35:00
1:55 AM,8.6,8.6,100,29.67,10.0,West,4.6,-,N/A,,Mostly Cloudy,270,2013-02-21 08:55:00
2:15 AM,10.4,8.6,92,29.67,10.0,West,5.8,-,N/A,,Overcast,280,2013-02-21 09:15:00
2:35 AM,10.4,8.6,92,29.67,10.0,WNW,3.5,-,N/A,,Overcast,300,2013-02-21 09:35:00
2:55 AM,12.2,8.6,85,29.67,10.0,West,3.5,-,N/A,,Overcast,280,2013-02-21 09:55:00
3:15 AM,10.4,8.6,92,29.67,10.0,West,3.5,-,N/A,,Overcast,270,2013-02-21 10:15:00
3:35 AM,12.2,10.4,92,29.67,10.0,Calm,Calm,-,N/A,,Overcast,0,2013-02-21 10:35:00
3:55 AM,12.2,10.4,92,29.67,10.0,NW,3.5,-,N/A,,Overcast,320,2013-02-21 10:55:00
4:15 AM,12.2,8.6,85,29.67,10.0,WNW,3.5,-,N/A,,Overcast,300,2013-02-21 11:15:00
4:55 AM,10.4,8.6,92,29.69,10.0,WNW,3.5,-,N/A,,Mostly Cloudy,290,2013-02-21 11:55:00
5:15 AM,10.4,8.6,92,29.70,10.0,NW,5.8,-,N/A,,Overcast,310,2013-02-21 12:15:00
5:35 AM,8.6,6.8,92,29.71,10.0,WNW,3.5,-,N/A,,Mostly Cloudy,300,2013-02-21 12:35:00
5:55 AM,8.6,6.8,92,29.71,10.0,Calm,Calm,-,N/A,,Mostly Cloudy,0,2013-02-21 12:55:00
6:15 AM,10.4,8.6,92,29.71,10.0,Calm,Calm,-,N/A,,Scattered Clouds,0,2013-02-21 13:15:00
6:35 AM,8.6,5.0,85,29.72,10.0,East,5.8,-,N/A,,Scattered Clouds,100,2013-02-21 13:35:00
6:55 AM,6.8,5.0,92,29.72,10.0,ESE,6.9,-,N/A,,Scattered Clouds,110,2013-02-21 13:55:00
7:15 AM,8.6,6.8,92,29.74,10.0,Calm,Calm,-,N/A,,Scattered Clouds,0,2013-02-21 14:15:00
7:35 AM,10.4,8.6,92,29.74,10.0,Calm,Calm,-,N/A,,Scattered Clouds,0,2013-02-21 14:35:00
7:55 AM,10.4,8.6,92,29.75,10.0,ENE,3.5,-,N/A,,Clear,60,2013-02-21 14:55:00
8:15 AM,10.4,8.6,92,29.77,10.0,Calm,Calm,-,N/A,,Mostly Cloudy,0,2013-02-21 15:15:00
8:35 AM,12.2,10.4,92,29.77,7.0,Calm,Calm,-,N/A,,Overcast,0,2013-02-21 15:35:00
8:55 AM,14.0,10.4,86,29.77,7.0,Calm,Calm,-,N/A,Snow,Light Snow,0,2013-02-21 15:55:00
9:15 AM,14.0,10.4,86,29.78,4.0,Calm,Calm,-,N/A,Snow,Light Snow,0,2013-02-21 16:15:00
9:35 AM,15.8,12.2,86,29.79,10.0,Calm,Calm,-,N/A,Snow,Light Snow,0,2013-02-21 16:35:00
9:55 AM,19.4,12.2,74,29.79,10.0,Calm,Calm,-,N/A,,Mostly Cloudy,0,2013-02-21 16:55:00
10:15 AM,21.2,14.0,74,29.79,10.0,ENE,3.5,-,N/A,,Scattered Clouds,70,2013-02-21 17:15:00
10:35 AM,19.4,14.0,80,29.79,10.0,East,3.5,-,N/A,,Mostly Cloudy,80,2013-02-21 17:35:00
10:55 AM,21.2,15.8,80,29.79,7.0,Calm,Calm,-,N/A,Snow,Light Snow,0,2013-02-21 17:55:00
11:15 AM,21.2,15.8,80,29.80,7.0,East,3.5,-,N/A,Snow,Light Snow,80,2013-02-21 18:15:00
11:35 AM,23.0,17.6,80,29.80,7.0,ENE,4.6,-,N/A,Snow,Light Snow,60,2013-02-21 18:35:00
11:55 AM,23.0,17.6,80,29.80,7.0,East,4.6,-,N/A,Snow,Light Snow,100,2013-02-21 18:55:00
12:15 PM,24.8,17.6,74,29.79,10.0,ESE,5.8,-,N/A,Snow,Light Snow,120,2013-02-21 19:15:00
12:35 PM,23.0,17.6,80,29.79,7.0,Calm,Calm,-,N/A,Snow,Light Snow,0,2013-02-21 19:35:00
12:55 PM,26.6,17.6,69,29.79,5.0,East,3.5,-,N/A,Snow,Light Snow,100,2013-02-21 19:55:00
1:15 PM,26.6,17.6,69,29.79,10.0,Calm,Calm,-,N/A,,Overcast,0,2013-02-21 20:15:00
1:35 PM,26.6,15.8,64,29.78,10.0,Calm,Calm,-,N/A,,Mostly Cloudy,0,2013-02-21 20:35:00
1:55 PM,26.6,17.6,69,29.78,10.0,Calm,Calm,-,N/A,,Scattered Clouds,0,2013-02-21 20:55:00
2:15 PM,26.6,17.6,69,29.77,10.0,Calm,Calm,-,N/A,,Scattered Clouds,0,2013-02-21 21:15:00
2:35 PM,30.2,17.6,60,29.77,10.0,Calm,Calm,-,N/A,,Scattered Clouds,0,2013-02-21 21:35:00
2:55 PM,28.4,17.6,64,29.77,10.0,WNW,3.5,-,N/A,,Clear,300,2013-02-21 21:55:00
3:15 PM,28.4,17.6,64,29.77,10.0,NW,4.6,-,N/A,,Mostly Cloudy,320,2013-02-21 22:15:00
3:35 PM,28.4,17.6,64,29.77,10.0,Calm,Calm,-,N/A,,Mostly Cloudy,0,2013-02-21 22:35:00
3:55 PM,28.4,15.8,59,29.77,10.0,West,9.2,-,N/A,,Mostly Cloudy,270,2013-02-21 22:55:00
4:15 PM,28.4,15.8,59,29.77,10.0,West,8.1,-,N/A,,Scattered Clouds,280,2013-02-21 23:15:00
4:35 PM,28.4,15.8,59,29.77,10.0,WNW,17.3,-,N/A,,Mostly Cloudy,300,2013-02-21 23:35:00
4:55 PM,28.4,15.8,59,29.77,10.0,NW,15.0,-,N/A,,Scattered Clouds,310,2013-02-21 23:55:00
5:15 PM,26.6,14.0,59,29.78,10.0,WNW,11.5,17.3,N/A,,Scattered Clouds,300,2013-02-22 00:15:00
5:35 PM,24.8,15.8,69,29.78,10.0,WNW,12.7,-,N/A,,Scattered Clouds,300,2013-02-22 00:35:00
5:55 PM,23.0,14.0,68,29.79,10.0,West,6.9,-,N/A,,Mostly Cloudy,270,2013-02-22 00:55:00
6:15 PM,21.2,14.0,74,29.79,10.0,West,9.2,-,N/A,,Mostly Cloudy,280,2013-02-22 01:15:00
6:35 PM,19.4,12.2,74,29.80,10.0,West,9.2,-,N/A,,Scattered Clouds,270,2013-02-22 01:35:00
6:55 PM,19.4,12.2,74,29.80,10.0,West,10.4,-,N/A,,Clear,280,2013-02-22 01:55:00
7:15 PM,19.4,12.2,74,29.81,10.0,WNW,10.4,-,N/A,,Scattered Clouds,290,2013-02-22 02:15:00
7:35 PM,17.6,10.4,73,29.82,10.0,WNW,8.1,-,N/A,,Scattered Clouds,300,2013-02-22 02:35:00
7:55 PM,17.6,10.4,73,29.82,10.0,WNW,9.2,-,N/A,,Scattered Clouds,290,2013-02-22 02:55:00
8:15 PM,17.6,10.4,73,29.82,10.0,WNW,12.7,-,N/A,,Scattered Clouds,290,2013-02-22 03:15:00
8:35 PM,15.8,10.4,79,29.83,10.0,WNW,12.7,-,N/A,,Clear,300,2013-02-22 03:35:00
8:55 PM,14.0,8.6,79,29.84,10.0,WNW,13.8,-,N/A,,Clear,290,2013-02-22 03:55:00
9:15 PM,14.0,8.6,79,29.84,10.0,WNW,13.8,-,N/A,,Scattered Clouds,300,2013-02-22 04:15:00
9:35 PM,12.2,6.8,79,29.85,10.0,WNW,11.5,-,N/A,,Scattered Clouds,290,2013-02-22 04:35:00
9:55 PM,12.2,6.8,79,29.85,10.0,WNW,11.5,-,N/A,,Clear,290,2013-02-22 04:55:00
10:15 PM,10.4,5.0,79,29.85,10.0,West,9.2,-,N/A,,Clear,280,2013-02-22 05:15:00
10:35 PM,10.4,5.0,79,29.85,10.0,WNW,10.4,-,N/A,,Clear,290,2013-02-22 05:35:00
10:55 PM,8.6,3.2,79,29.87,10.0,NW,5.8,-,N/A,,Clear,320,2013-02-22 05:55:00
11:15 PM,8.6,3.2,79,29.87,10.0,NW,6.9,-,N/A,,Clear,310,2013-02-22 06:15:00
11:35 PM,10.4,5.0,79,29.87,10.0,WNW,9.2,-,N/A,,Clear,300,2013-02-22 06:35:00
11:55 PM,8.6,3.2,79,29.87,10.0,WNW,8.1,-,N/A,,Clear,290,2013-02-22 06:55:00